Location: Sternwarte ZA, Rosenfeld-Brittheim
(48.2889°N, 8.6789°E)
Time: 22:09:56
(UTC+02:00)

ISS - Pass Details

Date: 19 September 2019
Orbit: 411 x 421 km, 51.6° (Epoch: 19 September)

Event Time Altitude Azimuth Distance (km) Brightness Sun altitude
Rises 20:34:40 0° 200° (SSW) 2,331 0.1 -11.4°
Reaches altitude 10° 20:37:17 10° 178° (S) 1,474 -1.2 -11.8°
Enters shadow 20:39:17 16° 140° (SE) 1,158 -2.0 -12.1°
